Weather History for Tulsa Jones, OK

Change the Weather History Date:

Friday, August 30, 2013

  Actual Average (KTUL) Record (KTUL)
Temperature  
Mean Temperature 86 °F 80 °F  
Max Temperature 100 °F 91 °F 107 °F (1947)
Min Temperature 73 °F 69 °F 50 °F (1915)
Cooling Degree Days 22 15  
Month to date cooling degree days 519  
Year to date cooling degree days 1687  
Since 1 June cooling degree days 1453  
Growing Degree Days 36 (Base 50)    
Moisture  
Dew Point 70 °F    
Average Humidity 63    
Maximum Humidity 93    
Minimum Humidity 33    
Precipitation  
Precipitation 0.00 in 0.11 in 3.43 in (2003)
Month to date precipitation 2.78  
Year to date precipitation 27.36  
Sea Level Pressure  
Sea Level Pressure 29.94 in    
Wind  
Wind Speed 3 mph (SSW)    
Max Wind Speed 12 mph    
Max Gust Speed 17 mph    
Visibility 10 miles    
Events      
T = Trace of Precipitation, MM = Missing Value Source: NWS Daily Summary

Daily Weather History Graph

Daily Weather History Graph

Search for Another Location

Airport:

Trip Planner

Search our weather history database for the weather conditions in past years. The results will help you decide how hot, cold, wet, or windy it might be!

Date:

Astronomy

Aug. 30, 2013 Rise Set
Actual Time 6:54 AM CDT 7:53 PM CDT
Civil Twilight 6:28 AM CDT 8:20 PM CDT
Nautical Twilight 5:56 AM CDT 8:51 PM CDT
Astronomical Twilight 5:24 AM CDT 9:23 PM CDT
Moon 1:39 AM CDT (8/30) 4:04 PM CDT (8/30)
Length of Visible Light 13h 52m
Length of Day
12h 59m
Waning Crescent, 29% of the Moon is Illuminated
Aug 30
Waning Crescent
Sep 5
New
Sep 12
First Quarter
Sep 19
Full
Sep 26
Last Quarter

Hourly Weather History & Observations

Time (CDT) Temp. Heat Index Dew Point Humidity Pressure Visibility Wind Dir Wind Speed Gust Speed Precip Events Conditions
12:53 AM 75.9 °F - 71.1 °F 85% 29.99 in 10.0 mi Calm Calm - N/A   Clear
1:53 AM 75.0 °F - 72.0 °F 90% 29.98 in 10.0 mi Calm Calm - N/A   Clear
2:53 AM 75.0 °F - 71.1 °F 87% 29.98 in 10.0 mi Calm Calm - N/A   Clear
3:53 AM 73.9 °F - 71.1 °F 91% 29.97 in 10.0 mi Calm Calm - N/A   Clear
4:53 AM 73.9 °F - 71.1 °F 91% 29.97 in 10.0 mi Calm Calm - N/A   Clear
5:53 AM 73.0 °F - 71.1 °F 93% 29.98 in 10.0 mi Calm Calm - N/A   Clear
6:53 AM 73.0 °F - 71.1 °F 93% 29.99 in 9.0 mi Calm Calm - N/A   Clear
7:53 AM 79.0 °F - 71.1 °F 77% 30.01 in 10.0 mi SSW 4.6 mph - N/A   Overcast
8:53 AM 82.9 °F 86.5 °F 69.1 °F 63% 30.01 in 10.0 mi SSW 4.6 mph - N/A   Scattered Clouds
9:53 AM 88.0 °F 92.1 °F 69.1 °F 53% 30.00 in 10.0 mi SSW 5.8 mph - N/A   Clear
10:53 AM 91.0 °F 95.6 °F 69.1 °F 48% 29.99 in 10.0 mi South 8.1 mph - N/A   Clear
11:53 AM 95.0 °F 99.5 °F 68.0 °F 41% 29.98 in 10.0 mi SSW 11.5 mph 16.1 mph N/A   Clear
12:53 PM 97.0 °F 101.0 °F 66.9 °F 37% 29.97 in 10.0 mi Variable 4.6 mph 17.3 mph N/A   Clear
1:53 PM 99.0 °F 104.2 °F 68.0 °F 36% 29.95 in 10.0 mi SW 6.9 mph - N/A   Clear
2:53 PM 100.0 °F 104.9 °F 66.9 °F 34% 29.92 in 10.0 mi SW 11.5 mph - N/A   Clear
3:53 PM 100.9 °F 106.0 °F 66.9 °F 33% 29.90 in 10.0 mi SW 8.1 mph - N/A   Clear
4:53 PM 100.0 °F 104.9 °F 66.9 °F 34% 29.89 in 10.0 mi SSW 8.1 mph - N/A   Clear
5:53 PM 99.0 °F 103.5 °F 66.9 °F 35% 29.88 in 10.0 mi SSW 8.1 mph - N/A   Clear
6:53 PM 97.0 °F 101.0 °F 66.9 °F 37% 29.88 in 10.0 mi South 9.2 mph - N/A   Clear
7:53 PM 89.1 °F 94.1 °F 70.0 °F 53% 29.88 in 10.0 mi South 3.5 mph - N/A   Clear
8:53 PM 82.0 °F 86.7 °F 72.0 °F 71% 29.87 in 10.0 mi Calm Calm - N/A   Clear
9:53 PM 80.1 °F 84.2 °F 73.0 °F 79% 29.87 in 10.0 mi Calm Calm - N/A   Clear
10:53 PM 80.1 °F 83.8 °F 72.0 °F 76% 29.87 in 10.0 mi Calm Calm - N/A   Scattered Clouds
11:53 PM 78.1 °F - 73.0 °F 84% 29.87 in 10.0 mi Calm Calm - N/A   Scattered Clouds